{"data":{"norad_id":60142,"intl_designator":"2024-120H","name":"STARLINK-32031","alt_names":[],"object_type":"PAYLOAD","status":"ACTIVE","operator":null,"country":"US","launch_date":"2024-06-27","launch_site_code":"AFETR","launch_vehicle":null,"mission":null,"orbit_class":"UNKNOWN","rcs_meters":null,"size_class":null,"mass_kg":null,"dimensions":null,"purposes":["comms"],"wikipedia_slug":null,"has_3d_model":false,"image_url":null,"decayed_at":null,"tle_current":{"epoch":"2026-09-21T20:42:30.676320Z","epoch_age_seconds":63839,"freshness":"FRESH","line1":"1 60142U 24120H   26264.86285505 -.00000345  00000+0  93799-6 0  9996","line2":"2 60142  53.1591 124.9989 0001243  97.0510 263.0634 15.34385149126548","mean_motion":15.34385149,"eccentricity":0.0001243,"inclination_deg":53.1591,"raan_deg":124.9989,"arg_perigee_deg":97.051,"mean_anomaly_deg":263.0634,"bstar":9.3799e-7,"rev_number":12654,"period_min":93.848666414589,"perigee_km":461.89705893629,"apogee_km":463.59770279337,"semimajor_km":6840.8843808648,"source":"CELESTRAK","updated_at":"2026-09-22T09:00:49.177493Z"}}}